This is the latest recevied weather packets stored in our database for station/object KC3AWA. If no packets are shown the sender has not sent any weather packets the latest 10 day(s).
| Time | Temp. | Humidity | Pressure | Rain* | Wind** | Luminosity | Snow |
|---|---|---|---|---|---|---|---|
| 1777956352 | 16.67° C | 65% | 1007.1 hPa | 0 mm | - | 0 W/m² | - |
| 1777956049 | 16.67° C | 65% | 1007.3 hPa | 0 mm | - | 0 W/m² | - |
| 1777955745 | 16.11° C | 66% | 1007.1 hPa | 0 mm | - | 0 W/m² | - |
| 1777955442 | 16.11° C | 67% | 1007.2 hPa | 0 mm | - | 0 W/m² | - |
| 1777955137 | 16.11° C | 67% | 1007.1 hPa | 0 mm | - | 0 W/m² | - |
| 1777946074 | 17.78° C | 62% | 1007.2 hPa | 0 mm | - | 0 W/m² | - |
| 1777945771 | 17.78° C | 62% | 1007.2 hPa | 0 mm | - | 0 W/m² | - |
| 1777945468 | 17.78° C | 62% | 1007.2 hPa | 0 mm | - | 0 W/m² | - |
| 1777945165 | 17.78° C | 62% | 1007 hPa | 0 mm | - | 0 W/m² | - |
| 1777944862 | 17.78° C | 62% | 1007 hPa | 0 mm | - | 0 W/m² | - |
| 1777944560 | 17.22° C | 63% | 1007 hPa | 0 mm | - | 0 W/m² | - |
| 1777944258 | 17.78° C | 61% | 1006.9 hPa | 0 mm | - | 0 W/m² | - |
| 1777943954 | 17.78° C | 61% | 1006.9 hPa | 0 mm | - | 0 W/m² | - |
| 1777943650 | 17.78° C | 61% | 1006.7 hPa | 0 mm | - | 0 W/m² | - |
| 1777943347 | 17.78° C | 60% | 1006.8 hPa | 0 mm | - | 0 W/m² | - |
| 1777943043 | 17.78° C | 60% | 1006.9 hPa | 0 mm | - | 0 W/m² | - |
| 1777942739 | 17.78° C | 61% | 1006.8 hPa | 0 mm | - | 0 W/m² | - |
| 1777942435 | 17.78° C | 61% | 1006.8 hPa | 0 mm | - | 0 W/m² | - |
| 1777942134 | 18.33° C | 59% | 1006.7 hPa | 0 mm | - | 0 W/m² | - |
| 1777941829 | 17.78° C | 59% | 1006.8 hPa | 0 mm | - | 0 W/m² | - |
| 1777941527 | 17.78° C | 60% | 1006.7 hPa | 0 mm | - | 0 W/m² | - |
| 1777941224 | 18.33° C | 59% | 1006.5 hPa | 0 mm | - | 0 W/m² | - |
| 1777940920 | 18.33° C | 57% | 1006.6 hPa | 0 mm | - | 1 W/m² | - |
| 1777940617 | 18.33° C | 58% | 1006.4 hPa | 0 mm | - | 2 W/m² | - |
| 1777940315 | 18.33° C | 56% | 1006.5 hPa | 0 mm | - | 3 W/m² | - |
* Rain latest hour (hover to see other rain measurements)
** Current wind speed in m/s (hover to see current wind gust speed)